Miscellaneous Local Product
Issued by NWS Hastings, NE

Home | Current Version | Previous Version | Graphics & Text | Print | Product List | Glossary On
Versions: 1 2 3 4 5 6 7 8 9 10 11 12 13 14 15 16 17 18 19 20 21 22 23 24 25 26 27 28 29 30 31 32 33 34 35 36 37 38 39 40 41 42 43 44 45 46 47 48 49 50
988
AXUS43 KGID 260602
MISGRI

GID CWA HOURLY WEATHER ROUNDUP
NATIONAL WEATHER SERVICE HASTINGS NE
100 AM CDT WED JUL 26 2017

NOTE: "FAIR" INDICATES FEW OR NO CLOUDS BELOW 12,000 FEET WITH NO
SIGNIFICANT WEATHER AND/OR OBSTRUCTIONS TO VISIBILITY.

...SOUTH CENTRAL NEBRASKA...

CITY           SKY/WX    TMP DP  RH WIND       PRES   REMARKS
GRAND ISLAND   CLOUDY    80  69  69 SE17G25   29.91F
HASTINGS       CLOUDY    82  65  56 S14       29.93F
KEARNEY        CLOUDY    80  66  62 S16       29.91F
ORD            CLOUDY    72  65  78 NE22G30   29.95R
YORK           CLOUDY    81  72  74 S13       29.94F
AURORA         CLOUDY    80  69  69 S15G23    29.93F
LEXINGTON      CLOUDY    82  68  60 SW24G33   29.98R THUNDER
HOLDREGE       CLOUDY    80  64  58 SE10G16   29.91F
HEBRON         MOCLDY    83  69  62 S10       29.95F

...NEBRASKA PANHANDLE...

CITY           SKY/WX    TMP DP  RH WIND       PRES   REMARKS
CHADRON        CLOUDY    76  56  49 NE14      30.07R
ALLIANCE       CLOUDY    70  64  81 N21G26    30.06R
SCOTTSBLUFF    PTCLDY    76  60  57 N14G23    30.07R
SIDNEY         CLOUDY    74  60  61 N16       30.05R

...WESTERN AND NORTH CENTRAL NEBRASKA...

CITY           SKY/WX    TMP DP  RH WIND       PRES   REMARKS
VALENTINE      CLOUDY    72  66  81 SE6       30.02R
AINSWORTH      RAIN      66  66  99 SE13      30.02R
ONEILL         LGT RAIN  69  69 100 NE13      30.01F
BROKEN BOW     CLOUDY    79  66  64 NW17      29.96R
IMPERIAL       CLOUDY    73  61  65 W9        29.93F
NORTH PLATTE   CLOUDY    76  70  82 N8        29.93S
MCCOOK         CLOUDY    81  68  64 E6        29.90F

...EASTERN NEBRASKA...

CITY           SKY/WX    TMP DP  RH WIND       PRES   REMARKS
NORFOLK        CLOUDY    81  67  62 N12       29.95R
SO SIOUX CITY  CLOUDY    80  74  81 SE8       29.93F
TEKAMAH        CLOUDY    80  72  76 SE9       29.95F
COLUMBUS       CLOUDY    84  70  62 SE18      29.92F
ALBION         CLOUDY    79  67  66 N20G31    29.97R
OMAHA EPPLEY   CLOUDY    83  75  77 SE15      29.97S HX  90
MILLARD        CLOUDY    83  74  76 SE7       29.98S
LINCOLN        MOCLDY    83  69  62 S15       29.96F
NEBRASKA CITY  CLOUDY    78  75  90 SE9       30.00S
BEATRICE       PTCLDY    82  70  67 SE12      29.97F
FALLS CITY     PTCLDY    77  73  87 SE7       30.00S

...NORTHERN KANSAS...

CITY           SKY/WX    TMP DP  RH WIND       PRES   REMARKS
GOODLAND       CLOUDY    74  62  66 N6        29.98F
HILL CITY      CLOUDY    87  65  47 S17G25    29.90F
NORTON         MOCLDY    81  61  50 SE16      29.90S
PHILLIPSBURG   CLEAR     82  66  57 E7        29.90F
SMITH CENTER     N/A     81  64  57 SE14      29.92F
HAYS           PTCLDY    84  67  56 S15       29.94S
RUSSELL        CLOUDY    85  64  49 S17       29.93S
CONCORDIA      MOCLDY    82  70  66 SE14      29.95F
SALINA         PTCLDY    87  68  52 S16       29.96S HX  90
TOPEKA         PTCLDY    81  72  74 SE5       30.01R



USA.gov is the U.S. government's official web portal to all federal, state and local government web resources and services.